EW2984 Weather Reports


Display with metric or nautical units.
time (UTC)temp
F
wind
direction
speed
MPH
gust
MPH
rain 1hr
in
rain 24hr
in
rain mn
in
humidity
%
barometer
mb
20260902184534 70 135 0.0 3.0 0.01 0.67 0.34 99 1017.1
20260902183035 70 137 0.0 3.0 0.04 0.67 0.34 99 1017.6
20260902181534 69 131 0.0 3.0 0.07 0.67 0.34 99 1017.4
20260902180036 68 116 0.0 3.0 0.12 0.67 0.34 98 1017.3
20260902174532 69 126 0.0 1.0 0.14 0.66 0.33 98 1018.3
20260902173033 69 120 0.0 1.0 0.12 0.63 0.30 98 1019.2
20260902171531 69 203 0.0 1.0 0.10 0.59 0.26 97 1019.6
20260902170130 70 222 0.0 3.0 0.19 0.55 0.22 96 1020.3
20260902164530 73 233 0.0 1.0 0.16 0.52 0.19 97 1020.5
20260902163028 73 208 0.0 0.0 0.15 0.51 0.18 97 1020.6
20260902161528 74 208 0.0 1.0 0.13 0.49 0.16 94 1020.4
20260902160024 75 226 0.0 1.0 0.00 0.36 0.03 91 1019.1
20260902154524 75 122 1.0 5.0 0.00 0.36 0.03 90 1018.7
20260902153032 75 127 0.0 5.0 0.00 0.36 0.03 92 1018.7
20260902151520 75 131 0.0 4.0 0.00 0.36 0.03 92 1018.3
20260902150017 75 99 0.0 3.0 0.00 0.36 0.03 93 1018.5
20260902144527 74 139 0.0 4.0 0.00 0.36 0.03 93 1018.6
20260902143014 74 131 0.0 4.0 0.00 0.36 0.03 94 1018.8
20260902141511 73 146 1.0 3.0 0.00 0.36 0.03 95 1018.7
20260902140008 73 135 0.0 3.0 0.00 0.36 0.03 96 1018.7
20260902134509 73 128 0.0 3.0 0.00 0.36 0.03 97 1018.9
20260902133005 72 124 0.0 2.0 0.00 0.36 0.03 99 1018.6
20260902131505 72 124 0.0 3.0 0.00 0.36 0.03 100 1018.3
20260902130105 71 128 0.0 0.0 0.00 0.36 0.03 100 1018.1
20260902124557 71 129 0.0 0.0 0.00 0.36 0.03 100 1018.1
20260902123056 70 129 0.0 0.0 0.00 0.36 0.03 100 1017.9
20260902121556 70 129 0.0 0.0 0.00 0.36 0.03 100 1018.1
20260902120054 70 129 0.0 1.0 0.00 0.36 0.03 100 1017.8
20260902114553 70 129 0.0 0.0 0.00 0.36 0.03 100 1017.7
20260902113055 69 129 0.0 0.0 0.00 0.36 0.03 100 1017.8
20260902111551 69 129 0.0 1.0 0.00 0.36 0.03 100 1017.5
20260902110054 69 124 0.0 1.0 0.00 0.36 0.03 100 1017.6
20260902104551 69 124 0.0 0.0 0.00 0.36 0.03 100 1017.5
20260902103049 69 124 0.0 0.0 0.00 0.36 0.03 100 1017.8
20260902101549 69 124 0.0 0.0 0.00 0.36 0.03 100 1017.8
20260902100047 69 124 0.0 0.0 0.00 0.36 0.03 100 1017.7
20260902094550 69 122 0.0 0.0 0.00 0.36 0.03 100 1017.6
20260902093046 69 122 0.0 0.0 0.01 0.36 0.03 100 1017.6
20260902091552 69 122 0.0 1.0 0.01 0.36 0.03 100 1017.6
20260902090042 69 122 0.0 1.0 0.01 0.36 0.03 99 1017.3
20260902084542 69 135 0.0 1.0 0.01 0.36 0.03 99 1017.3
20260902083042 69 134 0.0 1.0 0.00 0.35 0.02 99 1017.2
20260902081540 69 113 0.0 0.0 0.00 0.35 0.02 99 1017.2
20260902080045 69 113 0.0 0.0 0.00 0.35 0.02 99 1017.1
20260902074539 69 113 0.0 1.0 0.00 0.35 0.02 99 1017.0
20260902073038 69 92 0.0 0.0 0.00 0.35 0.02 99 1017.2
20260902071536 69 92 0.0 0.0 0.00 0.35 0.02 99 1017.1
20260902070035 69 92 0.0 0.0 0.00 0.35 0.02 99 1016.9
20260902064534 69 92 0.0 0.0 0.00 0.35 0.02 99 1016.8
20260902063041 69 92 0.0 0.0 0.00 0.35 0.02 99 1016.7
20260902061547 70 92 0.0 0.0 0.00 0.35 0.02 99 1016.5
20260902060031 70 92 0.0 0.0 0.00 0.35 0.02 99 1016.8
20260902054534 70 92 0.0 0.0 0.00 0.35 0.02 99 1016.7
20260902053030 70 112 0.0 1.0 0.00 0.35 0.02 99 1016.6
20260902051528 70 136 0.0 1.0 0.01 0.35 0.02 99 1016.5
20260902050027 70 136 0.0 1.0 0.02 0.35 0.02 98 1015.7
20260902044524 70 127 0.0 2.0 0.05 0.35 0.02 98 1015.9
20260902043031 70 148 0.0 0.0 0.07 0.35 0.02 98 1016.4
20260902041519 70 215 0.0 2.0 0.13 0.34 0.01 98 1016.8
20260902040016 71 218 0.0 2.0 0.27 0.33 0.33 97 1017.0
20260902034517 71 113 0.0 4.0 0.28 0.28 0.28 97 1017.3
20260902033035 72 243 0.0 1.0 0.28 0.28 0.28 97 1017.4
20260902031516 72 243 0.0 2.0 0.21 0.21 0.21 96 1016.5
20260902030020 74 250 0.0 3.0 0.06 0.09 0.06 92 1016.7
20260902024515 74 72 0.0 0.0 0.00 0.03 0.00 89 1015.9
20260902023013 75 72 0.0 0.0 0.00 0.00 0.00 87 1015.4
20260902021522 76 96 0.0 5.0 0.00 0.03 0.00 85 1015.8
20260902020012 78 46 0.0 5.0 0.00 0.03 0.00 77 1016.0
20260902014510 80 129 0.0 2.0 0.00 0.03 0.00 76 1015.3
20260902013009 81 61 0.0 2.0 0.00 0.03 0.00 75 1014.6
20260902011509 82 145 0.0 2.0 0.00 0.03 0.00 75 1014.5
20260902010011 83 109 0.0 1.0 0.00 0.03 0.00 76 1014.2
20260902004516 83 211 0.0 1.0 0.00 0.03 0.00 80 1014.3
20260902003008 84 211 0.0 0.0 0.00 0.03 0.00 79 1013.7
20260902001508 84 211 0.0 0.0 0.00 0.03 0.00 78 1013.4
20260902000013 84 211 0.0 0.0 0.00 0.03 0.00 76 1013.0
20260901234506 85 211 0.0 0.0 0.00 0.03 0.00 75 1012.7
20260901233009 86 211 0.0 0.0 0.00 0.03 0.00 75 1012.8
20260901231506 87 213 0.0 1.0 0.00 0.03 0.00 76 1013.1
20260901230005 87 213 0.0 0.0 0.00 0.03 0.00 75 1013.1
20260901224516 87 213 0.0 0.0 0.00 0.03 0.00 75 1013.0
20260901223005 88 206 0.0 0.0 0.00 0.03 0.00 74 1013.1
20260901221504 88 224 0.0 2.0 0.00 0.03 0.00 74 1012.8
20260901220003 89 206 0.0 1.0 0.00 0.03 0.00 74 1012.8
20260901214501 90 207 0.0 5.0 0.00 0.03 0.00 71 1012.9
20260901213002 91 221 0.0 2.0 0.00 0.03 0.00 69 1012.9
20260901211600 92 231 0.0 3.0 0.00 0.03 0.00 67 1013.1
20260901210058 92 229 0.0 4.0 0.00 0.03 0.00 67 1013.2
20260901204557 92 213 0.0 2.0 0.00 0.03 0.00 66 1013.2
20260901203058 92 210 0.0 4.0 0.00 0.03 0.00 68 1013.3
20260901201552 92 209 1.0 5.0 0.00 0.03 0.00 67 1013.5
20260901200105 93 222 0.0 3.0 0.00 0.03 0.00 68 1013.7
20260901194556 93 196 0.0 3.0 0.00 0.03 0.00 68 1013.9
20260901193042 92 198 0.0 5.0 0.00 0.03 0.00 68 1014.1
20260901191543 91 140 0.0 3.0 0.00 0.03 0.00 67 1014.3
20260901190041 90 214 0.0 3.0 0.00 0.03 0.00 70 1014.5